www.pogodaiklimat.ru

Погода и климат >> Архив погоды >> Германия >> Эринген


ПОГОДА в Эрингене

  • Прогноз погоды в Эрингене
  • Монитор погоды в Эрингене

АРХИВ ПОГОДЫ в Эрингене

Время (UTC), дата Ветер
(напр.,м/с)
 
Видим.   Явления Облачность Т
(С)
Тd
(С)
f
(%)
Тe
(С)
Тes
(С)
Комфортность P
(гПа)
Po
(гПа)
Тmin
(С)
Tmax
(С)
R
(мм)
R24
(мм)
S
(см)
01 14.07 ЮВ 1-2
{2}
26 км ясно +13.2 +11.9 92 +13 +13 1017.6 985.1
02 14.07 Ю 1 24 км 9/9 1500 м
[]
+12.8 +11.7 93 +13 +13 1017.4 984.9
03 14.07 штиль 0 24 км 9/0 2000 м
[]
+12.9 +11.6 92 +12 +12 1017.5 985.0
04 14.07 В 2 16 км 10/10 1500 м
[]
+12.9 +11.8 93 +12 +12 1017.2 984.7
05 14.07 ЮВ 1 25 км 9/9 1410 м
[]
+14.0 +12.2 89 +14 +14 1016.9 984.5
06 14.07 СЗ 1 20 км 9/9 1000 м
[]
+15.1 +13.0 87 +16 +16 1016.7 984.5 +12.7 +19.2 0.0
07 14.07 СЗ 2 30 км 10/10 1500 м
[]
+16.1 +12.8 81 +16 +16 1017.2 985.0
08 14.07 СВ 3 26 км 9/9 540 м
[]
+18.1 +13.6 75 +18 +19 1016.8 984.9
09 14.07 С 2 40 км в посл. час дождь {морось} 9/9 630 м
[]
+18.5 +12.2 67 +20 +21 1016.7 984.8 0.0
10 14.07 С 4 40 км 8/8 700 м
[]
+19.2 +12.7 66 +20 +22 1016.4 984.6
11 14.07 СЗ 4 50 км 8/8 900 м
[]
+20.1 +12.3 61 +22 +24 комфорт 1016.2 984.5
12 14.07 СЗ 4 60 км {дождь, морось} 9/9 1080 м
[]
+21.9 +12.8 56 +24 +26 комфорт 1015.5 984.0
13 14.07 СЗ 5 55 км 9/9 1110 м
[]
+20.8 +11.7 56 +23 +24 комфорт 1015.4 983.8
14 14.07 СЗ 5-8
{10}
45 км 1/0
[]
+20.9 +12.0 57 +23 +29 комфорт 1015.2 983.6
15 14.07 СЗ 5 65 км 5/0 2000 м
[]
+21.0 +12.2 57 +23 +27 комфорт 1015.1 983.5
16 14.07 СЗ 5 >70 км 9/9 1350 м
[]
+20.7 +12.0 57 +23 +23 комфорт 1015.0 983.4
17 14.07 СЗ 4 60 км 9/9 1300 м
[]
+19.8 +11.3 58 +21 +21 комфорт 1015.5 983.8
18 14.07 С 3 >70 км 10/0
[]
+19.3 +10.8 58 +21 +21 комфорт 1015.8 984.0 +15.1 +22.3
19 14.07 С 4-7
{8}
65 км ясно +17.9 +10.2 61 +18 +18 1016.3 984.3
20 14.07 С 4-7
{7}
>70 км ясно +16.1 +9.7 66 +15 +15 1016.8 984.6
21 14.07 С 3-4
{8}
65 км ясно +14.8 +9.2 69 +14 +14 1017.1 984.8
22 14.07 СВ 2-2
{4}
>70 км ясно +14.0 +9.8 76 +14 +14 1017.7 985.3
23 14.07 СВ 1-2
{3}
>70 км ясно +13.3 +10.0 80 +13 +13 1017.8 985.3
00 15.07 В 1 65 км ясно +12.2 +9.9 86 +12 +12 1017.8 985.2
01 15.07 С 1-2
{2}
50 км ясно +11.6 +9.9 89 +11 +11 1017.5 984.8
02 15.07 штиль 0-1
{1}
50 км ясно +10.8 +9.3 90 +10 +10 1017.1 984.3
03 15.07 В 1 40 км 9/9 1440 м
[]
+10.2 +8.7 90 +10 +10 1017.2 984.3
04 15.07 ЮВ 1-1
{1}
50 км ясно +9.7 +8.6 93 +9 +9 1017.5 984.6
05 15.07 СВ 1-1
{2}
40 км ясно +11.3 +9.7 90 +11 +12 1017.3 984.6
06 15.07 С 2 50 км 5/5 200 м
[]
+13.2 +10.6 84 +12 +14 1017.1 984.6 +9.6 +19.4
07 15.07 СВ 2 35 км 8/8 360 м
[]
+15.5 +11.1 75 +15 +17 1017.0 984.8
08 15.07 В 2-4
{4}
50 км 3/3 450 м
[]
+17.1 +11.4 69 +17 +24 1017.1 985.0
09 15.07 СВ 2 65 км 1/1 630 м
[]
+19.1 +12.4 65 +21 +33 комфорт 1016.5 984.7
10 15.07 С 2 55 км 9/9 840 м
[]
+19.6 +12.1 62 +22 +23 комфорт 1016.4 984.6
11 15.07 С 2 50 км 10/10 1080 м
[]
+21.5 +11.2 52 +23 +23 комфорт 1016.1 984.5
12 15.07 СЗ 2 60 км 10/10 1500 м
[]
+22.5 +11.1 48 +25 +25 комфорт 1015.9 984.4
13 15.07 С 3 60 км 4/4 1350 м
[]
+21.7 +9.7 46 +23 +31 комфорт 1015.6 984.1
14 15.07 С 4-6
{6}
50 км 3/3 1500 м
[]
+22.6 +10.1 45 +24 +30 комфорт 1015.3 983.9
15 15.07 СЗ 4 >70 км 1/1 1500 м
[]
+24.1 +10.1 41 +25 +30 комфорт 1015.1 983.8
16 15.07 СЗ 4-6
{7}
>70 км 4/4 1500 м
[]
+23.4 +10.2 43 +25 +27 комфорт 1015.0 983.7
17 15.07 СЗ 4-6
{7}
65 км ясно +23.1 +11.0 46 +25 +27 комфорт 1015.0 983.6
18 15.07 С 4 >70 км ясно +21.8 +11.0 50 +24 +24 комфорт 1015.5 984.0 +13.4 +24.6
19 15.07 СЗ 3-5
{8}
50 км ясно +19.6 +11.1 58 +21 +21 комфорт 1016.1 984.3
20 15.07 СЗ 2-5
{5}
50 км 1/0
[]
+17.7 +11.0 65 +18 +18 1016.9 984.9
21 15.07 Ю 1 65 км 4/0
[]
+16.4 +11.1 71 +17 +17 1017.4 985.3
22 15.07 СЗ 2-3
{3}
50 км ясно +15.7 +10.6 72 +16 +16 1017.9 985.7
23 15.07 СЗ 2-2
{2}
40 км ясно +14.3 +10.3 77 +14 +14 1018.3 985.9
00 16.07 З 1 30 км ясно +13.2 +10.3 83 +13 +13 1018.7 986.2
01 16.07 СЗ 2-2
{2}
40 км ясно +12.5 +10.0 85 +12 +12 1018.7 986.1
02 16.07 штиль 0-1
{2}
29 км ясно +11.0 +9.3 89 +10 +10 1018.9 986.1
03 16.07 штиль 0-1
{2}
27 км ясно +10.5 +9.1 91 +10 +10 1019.0 986.1
04 16.07 ЮВ 1-2
{2}
23 км ясно +9.7 +8.6 93 +9 +9 1019.0 986.0
05 16.07 ЮВ 1-1
{2}
24 км 1/1 800 м
[]
+10.0 +8.6 91 +9 +11 1019.2 986.3
06 16.07 штиль 0 24 км 9/9 600 м
[]
+12.5 +9.3 81 +12 +12 1019.0 986.4 +9.6 +21.9
07 16.07 СЗ 1-2
{2}
21 км 10/10 800 м
[]
+14.4 +10.3 76 +15 +15 1018.7 986.3
08 16.07 СЗ 1-2
{3}
27 км 9/9 800 м
[]
+16.2 +10.1 67 +17 +18 1018.3 986.1
09 16.07 СЗ 2 27 км 5/5 800 м
[]
+17.3 +9.9 62 +18 +24 1018.2 986.1
10 16.07 З 2-4
{6}
30 км 9/9 900 м
[]
+18.6 +10.1 58 +20 +21 1017.9 986.0
11 16.07 ЮЗ 3-5
{6}
30 км ясно +19.8 +9.7 52 +21 +36 комфорт 1017.5 985.7
12 16.07 З 3-6
{6}
40 км ясно +21.1 +10.5 51 +23 +37 комфорт 1016.9 985.3
13 16.07 З 2-4
{5}
40 км ясно +22.8 +10.2 45 +25 +40 комфорт 1016.3 984.9
14 16.07 СЗ 2-4
{6}
65 км 6/0
[]
+23.0 +8.4 39 +24 +33 комфорт 1016.1 984.7
15 16.07 З 2 45 км 3/0
[]
+23.7 +7.0 34 +24 +31 комфорт 1015.8 984.4
17 16.07 СЗ 2-4
{5}
65 км 4/0
[]
+24.5 +7.6 34 +25 +27 комфорт 1014.8 983.6
18 16.07 З 2 65 км 10/0
[]
+23.6 +8.0 37 +24 +24 комфорт 1014.9 983.6 +12.5 +24.9
19 16.07 З 2-2
{3}
45 км ясно +22.2 +8.3 41 +23 +23 комфорт 1015.1 983.6
20 16.07 В 1-2
{4}
50 км 10/0
[]
+19.6 +10.3 55 +22 +22 комфорт 1015.6 983.8
21 16.07 ЮВ 2 50 км 9/0
[]
+16.7 +10.5 67 +17 +17 1016.0 983.9
22 16.07 ЮВ 2-2
{2}
45 км ясно +15.3 +10.1 71 +15 +15 1016.3 984.1
23 16.07 ЮВ 1-1
{2}
40 км ясно +13.8 +10.2 79 +14 +14 1016.4 984.0
00 17.07 ЮВ 1 40 км ясно +13.2 +10.0 81 +13 +13 1016.4 983.9
01 17.07 В 2-3
{3}
27 км ясно +12.7 +10.1 84 +12 +12 1016.2 983.7
02 17.07 СВ 1-2
{3}
26 км ясно +12.5 +10.2 86 +12 +12 1015.9 983.4
03 17.07 В 1-2
{3}
24 км ясно +11.8 +9.7 87 +12 +12 1016.0 983.4
04 17.07 В 2-2
{3}
24 км ясно +11.0 +9.3 89 +10 +10 1015.9 983.2
05 17.07 СВ 1-2
{2}
30 км ясно +13.0 +9.9 81 +13 +14 1015.5 983.0
06 17.07 В 2 35 км ясно +15.1 +11.0 76 +15 +18 1015.0 982.8 +10.9 +23.6
07 17.07 СВ 2-3
{3}
28 км ясно +17.2 +11.1 67 +18 +24 1014.7 982.7
08 17.07 СВ 1-3
{3}
35 км ясно +20.3 +11.6 57 +23 +34 комфорт 1014.1 982.5
09 17.07 С 2 45 км ясно +21.8 +11.3 51 +24 +37 комфорт 1014.0 982.5
10 17.07 С 2-4
{4}
40 км ясно +23.7 +12.6 50 +26 +41 жарко 1013.5 982.3
11 17.07 З 2-5
{5}
65 км 4/0
[]
+23.8 +10.4 43 +25 +39 комфорт 1013.3 982.1
12 17.07 З 2 45 км 3/0
[]
+25.1 +10.0 39 +26 +40 жарко 1012.9 981.8
13 17.07 З 3-6
{8}
45 км 1/1 1500 м
[]
+24.7 +9.6 38 +25 +37 комфорт 1012.5 981.4
14 17.07 СЗ 3-6
{7}
40 км 1/0
[]
+25.9 +9.7 36 +27 +36 жарко 1012.2 981.2
15 17.07 СЗ 3 40 км 4/0
[]
+26.1 +8.2 32 +26 +32 жарко 1011.9 980.9
16 17.07 СЗ 4-6
{7}
60 км ясно +26.2 +7.5 30 +26 +30 жарко 1011.5 980.5
17 17.07 З 4-6
{6}
45 км ясно +26.0 +7.5 31 +26 +28 жарко 1011.2 980.2
18 17.07 З 3 50 км ясно +25.0 +8.9 36 +26 +26 жарко 1011.2 980.1 +15.0 +26.6
19 17.07 СЗ 2-3
{6}
50 км ясно +23.2 +10.3 44 +25 +25 комфорт 1011.6 980.3
21 17.07 ЮВ 2-3
{6}
50 км ясно +18.0 +10.5 62 +19 +19 1012.6 980.8
22 17.07 ЮВ 2-2
{3}
40 км ясно +16.0 +11.1 73 +16 +16 1013.1 981.0
23 17.07 ЮВ 1-1
{2}
35 км ясно +15.2 +11.2 77 +16 +16 1013.1 981.0
00 18.07 СВ 2 27 км ясно +15.3 +11.1 76 +15 +15 1013.0 980.9
01 18.07 В 2-3
{3}
25 км ясно +14.3 +10.8 79 +14 +14 1012.9 980.7
02 18.07 ЮВ 1-1
{3}
23 км ясно +13.7 +10.6 82 +14 +14 1013.0 980.7
03 18.07 В 2 18 км 3/0
[]
+12.6 +10.3 86 +12 +12 1012.8 980.4
04 18.07 С 1-1
{2}
19 км 3/0
[]
+12.3 +10.1 86 +12 +12 1013.0 980.5
05 18.07 В 2-2
{2}
23 км 3/0
[]
+12.9 +10.2 84 +12 +13 1012.9 980.5
06 18.07 В 1 25 км 8/0
[]
+15.0 +11.3 79 +16 +18 1012.6 980.5 +12.3 +24.9
07 18.07 СВ 1-1
{1}
25 км 9/0
[]
+17.5 +12.4 72 +19 +22 1012.7 980.8
08 18.07 З 2-2
{2}
30 км 3/0
[]
+19.8 +12.1 61 +22 +30 комфорт 1012.6 981.0
09 18.07 З 3 30 км 1/0
[]
+21.4 +11.8 54 +23 +34 комфорт 1012.5 981.0
10 18.07 З 3-5
{6}
50 км 8/0
[]
+22.7 +11.9 50 +25 +33 комфорт 1012.5 981.2
11 18.07 З 3-6
{6}
50 км 9/0
[]
+24.2 +12.7 49 +26 +34 жарко 1012.3 981.2
12 18.07 З 3 45 км 3/3 1500 м
[]
+26.3 +10.9 38 +27 +37 жарко 1011.8 980.9
14 18.07 З 4-7
{9}
50 км 10/0
[]
+27.0 +9.8 34 +27 +32 жарко 1011.6 980.7
15 18.07 З 4 35 км 10/0 2000 м
[]
+26.0 +8.8 34 +26 +29 жарко 1011.4 980.4
16 18.07 З 3 55 км 8/0 2000 м
[]
+26.7 +8.9 33 +27 +30 жарко 1011.2 980.3
17 18.07 З 3 45 км 5/0
[]
+25.9 +9.9 36 +27 +28 жарко 1011.2 980.2
18 18.07 СЗ 2 45 км 10/0
[]
+25.5 +10.5 39 +26 +27 жарко 1011.4 980.4 +15.0 +27.5
19 18.07 ЮВ 2 50 км 9/0
[]
+24.0 +12.8 50 +26 +26 жарко 1011.6 980.5
20 18.07 ЮВ 2-2
{3}
45 км 10/0 2000 м
[]
+22.7 +13.0 54 +26 +26 жарко 1012.5 981.2
21 18.07 СЗ 5 35 км слаб. дождь 9/0 2000 м
[]
+19.8 +14.2 70 +22 +22 комфорт 1013.4 981.8 0.0
22 18.07 Ю 2-2
{6}
50 км в посл. час дождь {морось} 10/0
[]
+20.1 +13.7 67 +23 +23 комфорт 1013.4 981.8
23 18.07 Ю 1 40 км в посл. час дождь {морось} 10/0
[]
+19.4 +14.3 72 +22 +22 комфорт 1013.9 982.2
00 19.07 СЗ 2 45 км {дождь, морось} 10/0
[]
+18.4 +14.6 79 +19 +19 1014.2 982.4 0.0
01 19.07 ЮВ 2 35 км 9/0 2000 м
[]
+17.8 +14.4 80 +18 +18 1014.4 982.5
02 19.07 ЮВ 1 50 км 10/0
[]
+17.3 +13.5 78 +18 +18 1014.2 982.3
03 19.07 Ю 1 35 км 10/0
[]
+17.2 +13.7 80 +18 +18 1014.3 982.4
04 19.07 С 1 30 км 10/0
[]
+17.2 +13.7 80 +18 +18 1014.3 982.4
05 19.07 В 1 29 км 10/0
[]
+17.2 +13.9 81 +18 +19 1014.5 982.6
06 19.07 штиль 0 27 км в посл. час дождь {морось} 9/0 2000 м
[]
+18.1 +15.2 83 +18 +20 1014.8 983.0 +17.1 +25.5 0.1
07 19.07 В 1 26 км в посл. час дождь 9/0
[]
+19.5 +15.3 77 +22 +26 комфорт 1014.9 983.2
08 19.07 СЗ 1 30 км 10/10 1500 м
[]
+20.5 +14.5 68 +24 +24 комфорт 1015.3 983.7
09 19.07 З 2 55 км {дождь} 9/9 1500 м
[]
+22.0 +13.2 57 +25 +26 комфорт 1015.4 983.9 0.0
10 19.07 З 4-7
{7}
35 км 5/0 2000 м
[]
+24.2 +12.3 47 +26 +34 жарко 1015.0 983.8
11 19.07 З 4 50 км 5/0 2000 м
[]
+26.0 +12.0 42 +27 +36 жарко 1014.6 983.6
12 19.07 ЮЗ 3 50 км {дождь, дымка} 8/8 1500 м
[]
+27.3 +14.0 44 +29 +32 жарко 1014.4 983.5
13 19.07 З 5 40 км 9/9 1500 м
[]
+25.6 +13.0 46 +28 +28 жарко 1014.5 983.4
14 19.07 З 5 45 км 9/0
[]
+25.6 +12.9 45 +27 +31 жарко 1014.5 983.4
15 19.07 СЗ 5 55 км 9/0
[]
+24.7 +13.7 50 +27 +29 жарко 1014.5 983.3
16 19.07 СЗ 4 55 км 10/0 2000 м
[]
+24.8 +14.1 51 +27 +29 жарко 1014.5 983.4
17 19.07 З 4-7
{7}
50 км 9/0
[]
+24.2 +12.2 47 +26 +27 жарко 1014.5 983.3
18 19.07 З 3 50 км 8/0
[]
+23.6 +13.0 51 +26 +26 жарко 1014.5 983.2 +18.0 +27.3
19 19.07 З 1-2
{3}
60 км 9/0
[]
+23.0 +13.5 55 +26 +26 жарко 1014.5 983.2
20 19.07 ЮВ 1-2
{2}
50 км 5/0 2000 м
[]
+21.2 +14.3 65 +24 +24 комфорт 1015.2 983.7
21 19.07 ЮВ 2 45 км 10/0
[]
+19.3 +14.2 72 +21 +21 комфорт 1015.6 983.9
22 19.07 ЮВ 2-3
{3}
50 км 10/0
[]
+18.4 +13.9 75 +19 +19 1015.7 983.9
23 19.07 ЮВ 2-2
{3}
45 км 10/0
[]
+17.8 +13.9 78 +18 +18 1015.8 983.9
00 20.07 В 1 40 км 1/0
[]
+17.1 +14.0 82 +18 +18 1015.7 983.7
01 20.07 В 2-2
{2}
35 км ясно +16.4 +13.5 83 +17 +17 1015.5 983.4
02 20.07 В 2-2
{2}
40 км ясно +15.8 +13.3 85 +16 +16 1015.3 983.2
03 20.07 СВ 2 30 км 4/0
[]
+15.6 +13.3 86 +15 +15 1015.0 982.9
04 20.07 В 2-3
{3}
28 км ясно +15.4 +13.2 87 +15 +15 1014.8 982.7
05 20.07 В 2-3
{3}
30 км ясно +16.5 +13.5 82 +17 +18 1014.6 982.6
06 20.07 В 1 40 км ясно +20.1 +14.5 70 +23 +27 комфорт 1014.3 982.7 +15.1 +23.6
07 20.07 В 1-2
{2}
40 км ясно +23.3 +14.4 57 +27 +34 душно 1014.0 982.7
08 20.07 ЮВ 2-3
{3}
40 км ясно +25.2 +14.3 51 +28 +37 жарко 1013.7 982.6
09 20.07 ЮЗ 2 >70 км ясно +27.5 +15.2 47 +30 +43 жарко 1013.2 982.4
10 20.07 ЮЗ 2-4
{6}
>70 км ясно +28.4 +13.1 39 +30 +46 жарко 1012.8 982.1
11 20.07 ЮЗ 2 55 км 8/0
[]
+29.2 +12.7 36 +30 +41 жарко 1012.6 981.9
12 20.07 ЮЗ 2 55 км 3/0
[]
+30.4 +13.5 36 +32 +46 жарко 1012.2 981.7
13 20.07 З 3-5
{6}
50 км 9/0
[]
+30.6 +14.1 37 +32 +39 жарко 1012.1 981.6
14 20.07 З 4 60 км 6/0 2000 м
[]
+32.2 +15.1 36 +34 +40 душно 1011.4 981.1
15 20.07 З 4 >70 км 3/0
[]
+31.4 +11.2 29 +32 +36 жарко 1011.4 981.0
16 20.07 З 5 55 км 6/0
[]
+30.7 +12.1 32 +31 +33 жарко 1011.4 980.9
17 20.07 З 5 65 км 5/0
[]
+30.3 +10.4 29 +30 +31 жарко 1011.5 981.0
18 20.07 З 3 50 км 5/0
[]
+29.2 +11.5 33 +30 +30 жарко 1011.7 981.1 +20.1 +32.4
19 20.07 З 5 50 км в посл. час дождь 9/9 1300 м
[]
+28.4 +11.7 36 +29 +29 жарко 1012.1 981.4
20 20.07 ЮЗ 2 55 км 9/0
[]
+25.7 +13.3 46 +28 +28 жарко 1013.8 982.8
21 20.07 З 2 55 км {дождь} 9/0
[]
+24.3 +13.9 52 +27 +27 жарко 1014.5 983.3 0.0
22 20.07 Ю 1-2
{2}
50 км 1/0
[]
+23.1 +14.2 57 +27 +27 душно 1015.1 983.8
23 20.07 Ю 1 60 км 10/10 1350 м
[]
+22.5 +14.3 60 +26 +26 жарко 1015.3 983.9

 

Местоположение метеостанции Эринген (Германия): широта 49.22 долгота 9.52 высота над уровнем моря 276 м.

В архиве по умолчанию представлена погода в Эрингене за последнюю неделю. Архивные данные за месяц целиком и за предыдущие месяцы, начиная с января 2011 года, Вы можете получить, выбрав интересующий диапазон дат из раскрывающегося списка и нажав кнопку "Ввод!".


*Определитесь, кто Вы:
робот инопланетянин человек

Внимание! Время в таблицах - всемирное. Для получения местного времени необходимо прибавить поправку, которая равна 1 ч.

Смотрите также архив погоды в соседних городах и на ближайших метеорологических станциях:

Погода в Кронхютте (Германия) (35 км)
Погода в Нидерштеттене (Германия) (37 км)
Погода в Вайбштадте (Германия) (46 км)
Погода в Штутгарте (Германия) (49 км)
Погода в Мюлаккере (Германия) (55 км)
Погода в Фойхтванген-Хайльбронне (Германия) (62 км)
Погода в Михельштадте (Германия) (63 км)
Погода в Штутгарт аэропорту (Германия) (64 км)
Погода в Штёттен-ам-Ауэрберг (Германия) (66 км)
Погода в Вюрцбурге (Германия) (69 км)

Пояснения к столбцам:

Ветер - указаны скорость ветра в м/с - средняя за 10 мин, порывы в срок и между сроками (в фигурных скобках) и направление, откуда дует ветер: С - северный, СВ - северо-восточный, В - восточный, ЮВ - юго-восточный, Ю - южный, ЮЗ - юго-западный, З - западный, СЗ - северо-западный.
Видимость - горизонтальная дальность видимости в метрах или километрах. При видимости от 1 до 10 км при отсутствии осадков обычно наблюдается дымка, при ухудшении видимости до 1 км и менее - туман. В сухую погоду видимость может ухудшаться дымом, пылью или мглою.
Явления - указаны атмосферные явления, наблюдавшиеся в срок или в последний час перед сроком; фигурными скобками обозначены явления, наблюдавшиеся между сроками (за 1-3 часа до срока); квадратными скобками обозначены град или гололедные отложения с указанием их диаметра в мм.
Облачность - указаны через наклонную черту общая и нижняя облачность в баллах и высота нижней границы облаков в метрах; квадратными скобками обозначены формы облаков: Ci - перистые, Cs - перисто-слоистые, Cc - перисто-кучевые, Ac - высококучевые, As - высокослоистые, Sc - слоисто-кучевые, Ns - слоисто-дождевые, Cu - кучевые, Cb - кучево-дождевые. Подробнее классификацию облаков см. в Атласе облаков (PDF).
T - Температура воздуха - температура, измеренная на высоте 2 м над землей.
Td - Температура точки росы - температура, при понижении до которой содержащийся в воздухе водяной пар достигнет насыщения.
f - Относительная влажность воздуха - влажноcть воздуха, измеренная на высоте 2 м над землей.
Te - Эффективная температура - температура, которую ощущает одетый по сезону человек в тени. Характеристика душности погоды. При расчете учитывается влияние влажности воздуха и скорости ветра на теплоощущения человека.
Tes - Эффективная температура на солнце - температура, которую ощущает человек, с поправкой на солнечный нагрев. Характеристика знойности погоды. Зависит от высоты солнца над горизонтом, облачности и скорости ветра. Ночью, в пасмурную погоду, а также при ветре 12 м/с и более поправка равна нулю.
P - Атмосферное давление - приведенное к уровню моря атмосферное давление.
Po - Атмосферное давление - измеренное на уровне метеостанции атмосферное давление.
Tmin - Минимальная температура - минимум температуры воздуха на высоте 2 м над землей.
Tmax - Максимальная температура - максимум температуры воздуха на высоте 2 м над землей.
R - Количество осадков - Количество выпавших осадков за период времени, мм. При наведении курсора мыши на число - период времени, за который выпало указанное количество осадков.
R24 - Количество осадков - Количество выпавших осадков за 24 часа, мм.
S - Снежный покров - Высота снежного покрова, см. При наведении курсора мыши на число - состояние снежного покрова и степень покрытия местности в баллах.